sat.trackr.live / text

‹ back to catalog

STARLINK-34758

NORAD 64945 · 2025-158P

PAYLOAD ACTIVE UNKNOWN

§ Identity

Operator
Country
US
Launch date
2025-07-27
Launch site
AFWTR
Launch vehicle
Mass (kg)
RCS (m²)

Purposes: comms

External: N2YO · Heavens-Above · Gunter

§ Orbital elements

Epoch: 2026-09-20T14:23:15.832320Z

Period
93.91 min
Inclination
97.2818°
Eccentricity
0.0002371
Mean motion
15.33460821 rev/d
Perigee alt
463.9 km
Apogee alt
467.1 km
Semi-major
6,843.6 km
B*
3.6620e-4
RAAN
121.9422°
Arg perigee
112.8352°
Mean anomaly
247.3141°
Rev number
6,472

§ Raw data

STARLINK-347581 64945U 25158P   26263.59948880  .00011772  00000+0  36620-3 0  99962 64945  97.2818 121.9422 0002371 112.8352 247.3141 15.33460821 64725

JSON: /api/v1/satellites/64945 · /tle

For live sub-satellite position, see the globe view (requires WebGL).

§ Visibility from observer

Set your observer location to see the next 7 days of passes ≥ 10°. The values pass through the URL so the page stays shareable.

No JS? Fill the form by hand. The geolocation button needs JavaScript.